Time,TemperatureF,DewpointF,PressureIn,WindDirection,WindDirectionDegrees,WindSpeedMPH,WindSpeedGustMPH,Humidity,HourlyPrecipIn,Conditions,Clouds,dailyrainin,SoftwareType,DateUTC
2013-08-06 00:01:00,62.0,57.0,29.78,ESE,112,0.0,0.0,85,0.00,,,0.00,,2013-08-06 04:01:00,
2013-08-06 00:11:00,62.0,57.0,29.78,ESE,112,0.0,0.0,85,0.00,,,0.00,,2013-08-06 04:11:00,
2013-08-06 00:22:00,62.0,57.0,29.76,ESE,112,0.0,35.0,85,0.00,,,0.00,,2013-08-06 04:22:00,
2013-08-06 00:33:00,62.0,57.0,29.77,ENE,68,0.0,0.0,85,0.00,,,0.00,,2013-08-06 04:33:00,
2013-08-06 00:44:00,62.0,57.0,29.77,ENE,68,0.0,0.0,85,0.00,,,0.00,,2013-08-06 04:44:00,
2013-08-06 00:53:00,62.0,58.0,29.77,SE,135,0.0,0.0,86,0.00,,,0.00,,2013-08-06 04:53:00,
2013-08-06 01:02:00,62.0,58.0,29.77,ESE,112,0.0,0.0,86,0.00,,,0.00,,2013-08-06 05:02:00,
2013-08-06 01:11:00,62.0,58.0,29.77,ESE,112,0.0,0.0,86,0.00,,,0.00,,2013-08-06 05:11:00,
2013-08-06 01:22:00,62.0,58.0,29.77,ESE,112,0.0,0.0,86,0.00,,,0.00,,2013-08-06 05:22:00,
2013-08-06 01:32:00,61.0,57.0,29.77,ESE,112,0.0,0.0,86,0.00,,,0.00,,2013-08-06 05:32:00,
2013-08-06 01:43:00,61.0,57.0,29.77,ESE,112,0.0,0.0,86,0.00,,,0.00,,2013-08-06 05:43:00,
2013-08-06 01:53:00,61.0,57.0,29.77,SE,135,0.0,2.0,88,0.00,,,0.00,,2013-08-06 05:53:00,
2013-08-06 02:02:00,61.0,57.0,29.76,SE,135,0.0,0.0,88,0.00,,,0.00,,2013-08-06 06:02:00,
2013-08-06 02:11:00,61.0,57.0,29.76,SE,135,0.0,0.0,88,0.00,,,0.00,,2013-08-06 06:11:00,
2013-08-06 02:22:00,61.0,57.0,29.76,ESE,112,0.0,1.0,88,0.00,,,0.00,,2013-08-06 06:22:00,
2013-08-06 02:32:00,61.0,57.0,29.76,ESE,112,0.0,0.0,88,0.00,,,0.00,,2013-08-06 06:32:00,
2013-08-06 02:43:00,61.0,57.0,29.76,ESE,112,0.0,0.0,88,0.00,,,0.00,,2013-08-06 06:43:00,
2013-08-06 02:52:00,61.0,57.0,29.75,ESE,112,0.0,1.0,88,0.00,,,0.00,,2013-08-06 06:52:00,
2013-08-06 03:01:00,60.0,56.0,29.75,ENE,72,0.0,0.0,88,0.00,,,0.00,,2013-08-06 07:01:00,
2013-08-06 03:12:00,60.0,56.0,29.75,ENE,72,0.0,0.0,88,0.00,,,0.00,,2013-08-06 07:12:00,
2013-08-06 03:22:00,60.0,56.0,29.74,NE,45,0.0,0.0,88,0.00,,,0.00,,2013-08-06 07:22:00,
2013-08-06 03:32:00,60.0,56.0,29.75,ENE,68,0.0,0.0,88,0.00,,,0.00,,2013-08-06 07:32:00,
2013-08-06 03:43:00,60.0,56.0,29.75,ENE,68,0.0,0.0,88,0.00,,,0.00,,2013-08-06 07:43:00,
2013-08-06 03:53:00,60.0,56.0,29.74,SSE,158,0.0,0.0,88,0.00,,,0.00,,2013-08-06 07:53:00,
2013-08-06 04:01:00,60.0,57.0,29.74,SSE,158,0.0,0.0,89,0.00,,,0.00,,2013-08-06 08:01:00,
2013-08-06 04:11:00,60.0,57.0,29.74,SSE,158,0.0,0.0,89,0.00,,,0.00,,2013-08-06 08:11:00,
2013-08-06 04:22:00,60.0,57.0,29.73,East,90,0.0,0.0,89,0.00,,,0.00,,2013-08-06 08:22:00,
2013-08-06 04:33:00,60.0,57.0,29.72,SSE,158,0.0,0.0,89,0.00,,,0.00,,2013-08-06 08:33:00,
2013-08-06 04:43:00,60.0,57.0,29.72,SSE,158,0.0,0.0,89,0.00,,,0.00,,2013-08-06 08:43:00,
2013-08-06 04:52:00,60.0,57.0,29.73,SSE,158,0.0,0.0,89,0.00,,,0.00,,2013-08-06 08:52:00,
2013-08-06 05:01:00,60.0,57.0,29.73,East,90,0.0,1.0,89,0.00,,,0.00,,2013-08-06 09:01:00,
2013-08-06 05:11:00,60.0,57.0,29.73,East,90,0.0,1.0,89,0.00,,,0.00,,2013-08-06 09:11:00,
2013-08-06 05:22:00,60.0,57.0,29.73,ESE,112,0.0,0.0,89,0.00,,,0.00,,2013-08-06 09:22:00,
2013-08-06 05:32:00,60.0,57.0,29.73,SE,135,0.0,0.0,89,0.00,,,0.00,,2013-08-06 09:32:00,
2013-08-06 05:43:00,60.0,57.0,29.73,SE,135,0.0,0.0,89,0.00,,,0.00,,2013-08-06 09:43:00,
2013-08-06 05:52:00,61.0,58.0,29.73,SSE,158,0.0,0.0,90,0.00,,,0.00,,2013-08-06 09:52:00,
2013-08-06 06:01:00,61.0,58.0,29.72,SSE,158,0.0,0.0,90,0.00,,,0.00,,2013-08-06 10:01:00,
2013-08-06 06:12:00,61.0,58.0,29.72,SSE,158,0.0,0.0,90,0.00,,,0.00,,2013-08-06 10:12:00,
2013-08-06 06:22:00,60.0,57.0,29.72,ESE,112,0.0,0.0,90,0.00,,,0.00,,2013-08-06 10:22:00,
2013-08-06 06:32:00,60.0,57.0,29.72,SE,135,0.0,0.0,90,0.00,,,0.00,,2013-08-06 10:32:00,
2013-08-06 06:43:00,60.0,57.0,29.72,SE,135,0.0,0.0,90,0.00,,,0.00,,2013-08-06 10:43:00,
2013-08-06 06:53:00,60.0,57.0,29.72,SE,135,0.0,0.0,90,0.00,,,0.00,,2013-08-06 10:53:00,
2013-08-06 07:02:00,60.0,57.0,29.72,SE,135,0.0,0.0,90,0.00,,,0.00,,2013-08-06 11:02:00,
2013-08-06 07:11:00,60.0,57.0,29.72,SE,135,0.0,0.0,90,0.00,,,0.00,,2013-08-06 11:11:00,
2013-08-06 07:22:00,60.0,57.0,29.72,SE,135,0.0,0.0,90,0.00,,,0.00,,2013-08-06 11:22:00,
2013-08-06 07:32:00,60.0,57.0,29.72,ESE,112,0.0,0.0,90,0.00,,,0.00,,2013-08-06 11:32:00,
2013-08-06 07:43:00,60.0,57.0,29.72,ESE,112,0.0,0.0,90,0.00,,,0.00,,2013-08-06 11:43:00,
2013-08-06 07:53:00,60.0,57.0,29.72,East,90,0.0,0.0,90,0.00,,,0.00,,2013-08-06 11:53:00,
2013-08-06 08:02:00,61.0,58.0,29.72,SE,135,1.0,1.0,90,0.00,,,0.00,,2013-08-06 12:02:00,
2013-08-06 08:11:00,61.0,58.0,29.72,SE,135,1.0,1.0,90,0.00,,,0.00,,2013-08-06 12:11:00,
2013-08-06 08:22:00,62.0,59.0,29.73,ESE,112,1.0,1.0,90,0.00,,,0.00,,2013-08-06 12:22:00,
2013-08-06 08:32:00,62.0,59.0,29.73,SE,135,0.0,1.0,90,0.00,,,0.00,,2013-08-06 12:32:00,
2013-08-06 08:43:00,62.0,59.0,29.73,SE,135,0.0,1.0,90,0.00,,,0.00,,2013-08-06 12:43:00,
2013-08-06 08:52:00,63.0,60.0,29.73,ESE,112,0.0,0.0,90,0.00,,,0.00,,2013-08-06 12:52:00,
2013-08-06 09:02:00,63.0,60.0,29.74,SE,127,0.0,0.0,89,0.00,,,0.00,,2013-08-06 13:02:00,
2013-08-06 09:11:00,63.0,60.0,29.74,SE,127,0.0,0.0,89,0.00,,,0.00,,2013-08-06 13:11:00,
2013-08-06 09:22:00,63.0,60.0,29.74,ENE,68,0.0,0.0,89,0.00,,,0.00,,2013-08-06 13:22:00,
2013-08-06 09:32:00,64.0,61.0,29.74,SE,135,0.0,3.0,89,0.00,,,0.00,,2013-08-06 13:32:00,
2013-08-06 09:42:00,64.0,61.0,29.74,SE,135,0.0,3.0,89,0.00,,,0.00,,2013-08-06 13:42:00,
2013-08-06 09:53:00,64.0,60.0,29.75,SSE,158,0.0,0.0,88,0.00,,,0.00,,2013-08-06 13:53:00,
2013-08-06 10:01:00,65.0,61.0,29.74,SE,135,0.0,0.0,88,0.00,,,0.00,,2013-08-06 14:01:00,
2013-08-06 10:11:00,65.0,61.0,29.74,SE,135,0.0,0.0,88,0.00,,,0.00,,2013-08-06 14:11:00,
2013-08-06 10:22:00,66.0,62.0,29.73,SE,135,0.0,0.0,87,0.00,,,0.00,,2013-08-06 14:22:00,
2013-08-06 10:32:00,67.0,62.0,29.72,NE,40,0.0,7.0,84,0.00,,,0.00,,2013-08-06 14:32:00,
2013-08-06 10:42:00,67.0,62.0,29.72,NE,40,0.0,7.0,84,0.00,,,0.00,,2013-08-06 14:42:00,
2013-08-06 10:53:00,69.0,64.0,29.72,SSW,199,0.0,2.0,83,0.00,,,0.00,,2013-08-06 14:53:00,
2013-08-06 11:11:00,72.0,65.0,29.73,NNW,348,0.0,1.0,78,0.00,,,0.00,,2013-08-06 15:11:00,
2013-08-06 11:22:00,72.0,64.0,29.73,NNW,330,0.0,3.0,75,0.00,,,0.00,,2013-08-06 15:22:00,
2013-08-06 11:33:00,71.0,63.0,29.74,ESE,104,6.0,7.0,76,0.00,,,0.00,,2013-08-06 15:33:00,
2013-08-06 11:44:00,71.0,63.0,29.74,ESE,104,6.0,7.0,76,0.00,,,0.00,,2013-08-06 15:44:00,
2013-08-06 11:52:00,70.0,62.0,29.74,ESE,119,0.0,1.0,77,0.00,,,0.00,,2013-08-06 15:52:00,
2013-08-06 12:02:00,70.0,62.0,29.73,WSW,238,0.0,1.0,77,0.00,,,0.00,,2013-08-06 16:02:00,
2013-08-06 12:11:00,70.0,62.0,29.73,WSW,238,0.0,1.0,77,0.00,,,0.00,,2013-08-06 16:11:00,
2013-08-06 12:22:00,72.0,64.0,29.73,SE,144,1.0,2.0,76,0.00,,,0.00,,2013-08-06 16:22:00,
2013-08-06 12:32:00,74.0,65.0,29.73,WNW,297,0.0,3.0,73,0.00,,,0.00,,2013-08-06 16:32:00,
2013-08-06 12:43:00,74.0,65.0,29.73,WNW,297,0.0,3.0,73,0.00,,,0.00,,2013-08-06 16:43:00,
2013-08-06 13:02:00,75.0,64.0,29.73,ESE,112,0.0,5.0,69,0.00,,,0.00,,2013-08-06 17:02:00,
2013-08-06 13:11:00,75.0,64.0,29.73,ESE,112,0.0,5.0,69,0.00,,,0.00,,2013-08-06 17:11:00,
2013-08-06 13:21:00,75.0,64.0,29.72,WNW,291,0.0,2.0,69,0.00,,,0.00,,2013-08-06 17:21:00,
2013-08-06 15:32:00,74.0,63.0,29.71,West,270,36.0,56.0,68,0.00,,,0.00,,2013-08-06 19:32:00,
2013-08-06 15:42:00,74.0,63.0,29.71,West,270,36.0,56.0,68,0.00,,,0.00,,2013-08-06 19:42:00,
2013-08-06 15:52:00,73.0,63.0,29.70,NNW,338,0.0,26.0,71,0.00,,,0.00,,2013-08-06 19:52:00,
2013-08-06 16:01:00,72.0,63.0,29.70,NW,315,0.0,1.0,73,0.00,,,0.00,,2013-08-06 20:01:00,
2013-08-06 16:11:00,72.0,63.0,29.70,NW,315,0.0,1.0,73,0.00,,,0.00,,2013-08-06 20:11:00,
2013-08-06 16:22:00,72.0,63.0,29.70,WNW,292,0.0,0.0,74,0.00,,,0.00,,2013-08-06 20:22:00,
2013-08-06 16:32:00,70.0,63.0,29.70,WNW,292,0.0,0.0,78,0.00,,,0.00,,2013-08-06 20:32:00,
2013-08-06 16:44:00,70.0,63.0,29.70,WNW,292,0.0,0.0,78,0.00,,,0.00,,2013-08-06 20:44:00,
2013-08-06 16:52:00,69.0,63.0,29.70,NW,315,0.0,0.0,80,0.00,,,0.00,,2013-08-06 20:52:00,
2013-08-06 17:01:00,69.0,63.0,29.70,NW,315,0.0,0.0,81,0.00,,,0.00,,2013-08-06 21:01:00,
2013-08-06 17:11:00,69.0,63.0,29.70,NW,315,0.0,0.0,81,0.00,,,0.00,,2013-08-06 21:11:00,
2013-08-06 17:22:00,70.0,64.0,29.69,NW,315,0.0,0.0,81,0.00,,,0.00,,2013-08-06 21:22:00,
2013-08-06 17:32:00,71.0,65.0,29.70,WNW,292,0.0,0.0,80,0.00,,,0.00,,2013-08-06 21:32:00,
2013-08-06 17:43:00,71.0,65.0,29.70,WNW,292,0.0,0.0,80,0.00,,,0.00,,2013-08-06 21:43:00,
2013-08-06 17:52:00,70.0,64.0,29.70,West,270,0.0,0.0,80,0.00,,,0.00,,2013-08-06 21:52:00,
2013-08-06 18:01:00,71.0,65.0,29.71,NW,315,0.0,0.0,81,0.00,,,0.00,,2013-08-06 22:01:00,
2013-08-06 18:11:00,71.0,65.0,29.71,NW,315,0.0,0.0,81,0.00,,,0.00,,2013-08-06 22:11:00,
2013-08-06 18:22:00,71.0,65.0,29.71,North,0,0.0,0.0,80,0.00,,,0.00,,2013-08-06 22:22:00,
2013-08-06 18:32:00,71.0,64.0,29.71,NW,315,0.0,0.0,79,0.00,,,0.00,,2013-08-06 22:32:00,
2013-08-06 18:43:00,71.0,64.0,29.71,NW,315,0.0,0.0,79,0.00,,,0.00,,2013-08-06 22:43:00,
2013-08-06 18:53:00,70.0,63.0,29.71,WNW,292,0.0,0.0,79,0.00,,,0.00,,2013-08-06 22:53:00,
2013-08-06 19:01:00,69.0,62.0,29.72,WNW,292,0.0,0.0,79,0.00,,,0.00,,2013-08-06 23:01:00,
2013-08-06 19:11:00,69.0,62.0,29.72,WNW,292,0.0,0.0,79,0.00,,,0.00,,2013-08-06 23:11:00,
2013-08-06 19:22:00,69.0,63.0,29.72,NW,315,0.0,49.0,80,0.00,,,0.00,,2013-08-06 23:22:00,
2013-08-06 19:32:00,68.0,62.0,29.72,NW,315,0.0,0.0,81,0.00,,,0.00,,2013-08-06 23:32:00,
2013-08-06 19:43:00,68.0,62.0,29.72,NW,315,0.0,0.0,81,0.00,,,0.00,,2013-08-06 23:43:00,
2013-08-06 19:52:00,69.0,63.0,29.72,NW,315,0.0,0.0,81,0.00,,,0.00,,2013-08-06 23:52:00,
2013-08-06 20:01:00,68.0,62.0,29.72,WNW,292,0.0,0.0,81,0.00,,,0.00,,2013-08-07 00:01:00,
2013-08-06 20:11:00,68.0,62.0,29.72,WNW,292,0.0,0.0,81,0.00,,,0.00,,2013-08-07 00:11:00,
2013-08-06 20:21:00,68.0,62.0,29.73,WNW,292,0.0,0.0,81,0.00,,,0.00,,2013-08-07 00:21:00,
2013-08-06 20:32:00,67.0,61.0,29.73,WNW,292,4.0,23.0,82,0.00,,,0.00,,2013-08-07 00:32:00,
2013-08-06 20:43:00,67.0,61.0,29.73,WNW,292,4.0,23.0,82,0.00,,,0.00,,2013-08-07 00:43:00,
2013-08-06 20:52:00,67.0,62.0,29.74,WNW,292,0.0,1.0,83,0.00,,,0.00,,2013-08-07 00:52:00,
2013-08-06 21:01:00,66.0,61.0,29.73,SE,136,1.0,1.0,84,0.00,,,0.00,,2013-08-07 01:01:00,
2013-08-06 21:11:00,66.0,61.0,29.73,SE,136,1.0,1.0,84,0.00,,,0.00,,2013-08-07 01:11:00,
2013-08-06 21:22:00,65.0,60.0,29.73,SSE,158,0.0,1.0,85,0.00,,,0.00,,2013-08-07 01:22:00,
2013-08-06 21:32:00,65.0,60.0,29.72,SSE,158,0.0,0.0,85,0.00,,,0.00,,2013-08-07 01:32:00,
2013-08-06 21:43:00,65.0,60.0,29.72,SSE,158,0.0,0.0,85,0.00,,,0.00,,2013-08-07 01:43:00,
2013-08-06 21:52:00,64.0,60.0,29.72,SSE,158,0.0,0.0,86,0.00,,,0.00,,2013-08-07 01:52:00,
2013-08-06 22:02:00,64.0,60.0,29.73,SE,143,0.0,0.0,86,0.00,,,0.00,,2013-08-07 02:02:00,
2013-08-06 22:11:00,64.0,60.0,29.73,SE,143,0.0,0.0,86,0.00,,,0.00,,2013-08-07 02:11:00,
2013-08-06 22:22:00,63.0,59.0,29.73,SE,135,0.0,0.0,87,0.30,,,0.30,,2013-08-07 02:22:00,
2013-08-06 22:33:00,63.0,59.0,29.73,SE,135,0.0,0.0,87,0.30,,,0.30,,2013-08-07 02:33:00,
2013-08-06 22:43:00,63.0,59.0,29.73,SE,135,0.0,0.0,87,0.30,,,0.30,,2013-08-07 02:43:00,
2013-08-06 22:53:00,62.0,58.0,29.72,SE,135,0.0,0.0,87,0.30,,,0.30,,2013-08-07 02:53:00,
2013-08-06 23:01:00,62.0,58.0,29.72,SE,135,0.0,0.0,87,0.30,,,0.30,,2013-08-07 03:01:00,
2013-08-06 23:11:00,62.0,58.0,29.72,SE,135,0.0,0.0,87,0.30,,,0.30,,2013-08-07 03:11:00,
2013-08-06 23:23:00,62.0,58.0,29.72,SSE,158,0.0,0.0,88,0.30,,,0.30,,2013-08-07 03:23:00,
2013-08-06 23:32:00,62.0,58.0,29.73,SE,135,0.0,0.0,88,0.00,,,0.30,,2013-08-07 03:32:00,
2013-08-06 23:43:00,62.0,58.0,29.73,SE,135,0.0,0.0,88,0.00,,,0.30,,2013-08-07 03:43:00,
2013-08-06 23:52:00,62.0,58.0,29.72,ESE,112,0.0,0.0,88,0.00,,,0.30,,2013-08-07 03:52:00,